Welcome to the New NWS' Forecast!
Most changes are behind the scenes, but click here for differences you might notice.
Latest weather observations around

London, London-Corbin Airport-Magee Field (KLOZ)

Using English Units (Switch to International System of Units)
Date/ Time (EDT) Wind (mph) Vis. (mi) Weather Sky Cond. Temp (°F) Rel. Humidity Wind Chill (°F) Heat Index (°F) Pressure Precip. (in)
Air Dwpt 6 hour Altimeter (inHg) Sea level (inHg) 1 hr 3 hr 6 hr
Max Min
Sep 23 09:53 Calm 10 Clear CLR 71 64     79%   72 30.13 30.1      
Sep 23 08:53 Calm 8 Clear CLR 67 63     87%     30.12 30.09      
Sep 23 07:53 Calm 4 Fog/Mist CLR 62 60     93%     30.1 30.06      
Sep 23 06:53 Calm 7 Clear CLR 62 60     93%     30.08 30.05      
Sep 23 05:53 Calm 6 Fog/Mist CLR 61 59     93%     30.07 30.04      
Sep 23 04:53 Calm 6 Fog/Mist CLR 62 60     93%     30.07 30.03      
Sep 23 03:53 Calm 5 Fog/Mist CLR 63 61     93%     30.07 30.03      
Sep 23 02:53 Calm 6 Fog/Mist CLR 63 62     97%     30.07 30.03      
Sep 23 01:53 Calm 6 Fog/Mist CLR 65 62     90%     30.08 30.04      
Sep 23 00:53 Calm 6 Fog/Mist CLR 65 63     93%     30.08 30.05      
Sep 22 23:53 Calm 7 Clear CLR 67 64     90%     30.08 30.05      
Sep 22 22:53 NNE 3 10 Clear CLR 70 65     84%     30.09 30.06      
Sep 22 21:53 Calm 10 Clear CLR 71 65     81%   72 30.08 30.05      
Sep 22 20:53 Calm 10 Clear CLR 73 65     76%   74 30.08 30.04      
Sep 22 19:53 NE 3 10 Clear CLR 77 64     64%   77 30.06 30.03      
Sep 22 18:53 NE 5 10 Clear CLR 80 64     58%   82 30.06 30.02      
Sep 22 17:53 NNE 6 10 Clear CLR 84 63     49%   85 30.06 30.02      
Sep 22 16:53 NE 5 10 Clear CLR 84 64     51%   85 30.06 30.02      
Sep 22 15:53 NNE 8 10 Clear CLR 86 64     48%   87 30.07 30.03      
Sep 22 14:53 NE 9 10 Partly Cloudy FEW046 SCT060 SCT070 86 64     48%   87 30.09 30.05      
Sep 22 13:53 E 5 10 Partly Cloudy SCT039 85 65     51%   87 30.1 30.06      
Sep 22 12:53 ESE 7 10 Clear CLR 83 65     55%   85 30.12 30.08      
Sep 22 11:53 SE 6 10 Clear CLR 81 66     61%   83 30.13 30.1      
Sep 22 10:53 3 10 Clear CLR 77 67     71%   78 30.15 30.11      
Sep 22 09:53 NE 3 10 Clear CLR 73 66     79%   74 30.14 30.1      
Sep 22 08:53 ENE 3 7 Clear CLR 68 65     90%     30.13 30.1      
Sep 22 07:53 Calm 6 Clear   64 62     93%     30.13 30.09      
Sep 22 06:53 Calm 7 Clear CLR 63 61     93%     30.11 30.07      
Sep 22 05:53 Calm 6 Fog/Mist CLR 63 61     93%     30.1 30.06      
Sep 22 04:53 Calm 7 Clear CLR 64 62     93%     30.09 30.05      
Sep 22 03:53 Calm 6 Fog/Mist CLR 64 62     93%     30.08 30.04      
Sep 22 02:53 Calm 8 Clear CLR 65 63     93%     30.09 30.05      
Sep 22 01:53 Calm 9 Clear CLR 66 64     93%     30.1 30.06      
Sep 22 00:53 Calm 10 Clear CLR 67 64     90%     30.1 30.06      
Sep 21 23:53 Calm 9 Clear CLR 67 64     90%     30.11 30.07      
Sep 21 22:53 Calm 10 Clear CLR 69 65     87%     30.1 30.06      
Sep 21 21:53 Calm 10 Clear CLR 72 65     79%   73 30.09 30.05      
Sep 21 20:53 Calm 10 Clear CLR 74 66     76%   75 30.08 30.04      
Sep 21 19:53 ENE 3 10 Clear CLR 77 65     66%   78 30.06 30.03      
Sep 21 18:53 NE 3 10 Clear CLR 82 64     55%   84 30.06 30.03      
Sep 21 17:53 NE 6 10 Mostly Cloudy FEW049 SCT060 BKN080 84 63     49%   85 30.06 30.02      
Sep 21 16:53 7 10 Clear CLR 86 61     43%   86 30.07 30.03      
Sep 21 15:53 6 10 Clear CLR 85 62     46%   86 30.08 30.04      
Sep 21 14:53 7 10 Partly Cloudy FEW044 FEW050 SCT075 87 63     45%   88 30.1 30.05      
Sep 21 13:53 NE 6 10 Partly Cloudy SCT040 SCT048 83 65     55%   85 30.12 30.08      
Sep 21 12:53 NE 6 10 Partly Cloudy SCT033 82 65     56%   84 30.13 30.09      
Sep 21 11:53 ESE 5 10 Clear CLR 81 67     62%   83 30.14 30.1      
Sep 21 10:53 Calm 10 Clear CLR 77 68     74%   78 30.15 30.11      
Sep 21 09:53 Calm 10 Clear CLR 73 67     81%   74 30.15 30.11      
Sep 21 08:53 Calm 9 Clear CLR 68 65     90%     30.14 30.11      
Sep 21 07:53 Calm 4 Fog/Mist SCT001 64 62     93%     30.13 30.1      
Sep 21 07:39 Calm 7 Mostly Clear FEW003 63 62     97%     30.12        
Sep 21 07:32 Calm 2.5 Fog/Mist FEW003 63 62     97%     30.12        
Sep 21 07:28 Calm 1 Fog/Mist VV003 63 62     97%     30.12        
Sep 21 07:18 Calm 1.5 Fog/Mist FEW004 64 62     93%     30.12        
Sep 21 07:11 Calm 3 Fog/Mist FEW002 64 62     93%     30.12        
Sep 21 07:03 Calm 2.5 Fog/Mist SCT002 63 62     97%     30.12        
Sep 21 06:53 Calm 3 Fog/Mist BKN002 64 62     93%     30.11 30.07      
Sep 21 06:49 Calm 1.75 Fog/Mist BKN002 63 63     100%     30.11        
Sep 21 06:41 Calm 2.5 Fog/Mist BKN002 63 61     93%     30.11        
Sep 21 06:28 Calm 7 Partly Cloudy SCT002 64 62     93%     30.11        
Sep 21 05:53 Calm 8 Clear CLR 65 63     93%     30.1 30.06      
Sep 21 04:53 Calm 4 Fog/Mist FEW002 65 63     93%     30.09 30.06      
Sep 21 04:48 Calm 3 Fog/Mist FEW002 64 63     94%     30.09        
Sep 21 03:53 Calm 9 Clear CLR 66 64     93%     30.09 30.05      
Sep 21 03:04 Calm 4 Fog/Mist CLR 66 64     93%     30.08        
Sep 21 02:53 Calm 1 Fog/Mist CLR 66 65     96%     30.09 30.05      
Sep 21 02:51 Calm 1.5 Fog/Mist CLR 66 64     94%     30.09        
Sep 21 01:53 Calm 5 Fog/Mist CLR 67 65     93%     30.08 30.04      
Sep 21 00:53 Calm 6 Fog/Mist SCT039 68 66     93%     30.07 30.03      
Sep 20 23:53 Calm 6 Fog/Mist CLR 69 67     93%     30.08 30.04      
Sep 20 22:53 Calm 10 Clear CLR 69 67     93%     30.07 30.04      
Sep 20 21:53 Calm 10 Clear CLR 72 67     84%   73 30.06 30.03      
Sep 20 20:53 Calm 10 Clear CLR 73 68     84%   74 30.05 30.02      
Sep 20 19:53 Calm 10 Clear CLR 77 69     77%   78 30.04 30.01      
Sep 20 18:53 Calm 10 Clear CLR 81 66     61%   83 30.04 30.01      
Sep 20 17:53 W 3 10 Mostly Cloudy BKN046 83 64     53%   84 30.03 30      
Sep 20 16:53 W 3 10 Mostly Cloudy BKN048 BKN055 83 63     51%   84 30.03 29.99      
Sep 20 15:53 5 10 Clear CLR 84 64     51%   85 30.04 30      
Sep 20 14:53 5 10 Mostly Cloudy SCT050 BKN060 83 64     53%   84 30.05 30.01      
Sep 20 13:53 NNW 6 10 Partly Cloudy FEW030 FEW049 SCT060 82 66     58%   84 30.08 30.04      
Sep 20 12:53 W 3 10 Mostly Cloudy FEW025 SCT036 BKN044 79 66     65%   80 30.09 30.05      
Sep 20 12:50 WSW 3 10 Mostly Cloudy SCT025 SCT036 BKN044 79 66     65%   79 30.09        
Sep 20 12:29 Calm 10 Mostly Cloudy BKN024 79 66     65%   80 30.09        
Sep 20 11:53 5 10 Clear CLR 78 67     69%   79 30.1 30.06      
Sep 20 10:53 3 10 Clear CLR 75 66     74%   76 30.1 30.06      
Jun 11 23:53 Calm 10 Clear CLR 71 62     73%   71 30.14 30.1      
Jun 11 02:53 Calm 10 Clear   64 60     87%     30.13 30.09      
Jun 10 10:53 SSW 5 10 Clear CLR 75 58     55%   75 30.12 30.09      
Jun 10 03:53 Calm 9 Clear CLR 57 54     89%     30.03 30      
Jun 09 06:15 Calm 1.75 Fog/Mist OVC001 51 49     92%     29.96        
Jun 08 19:53 NW 8 10 Mostly Cloudy BKN085 69 51     53%     29.91 29.89      
Jun 08 14:53 WNW 9 10 Cloudy SCT033 BKN047 OVC080 69 54     59%     29.94 29.92      
Jun 08 11:53 ENE 8 10 Mostly Cloudy BKN017 66 55     68%     29.98 29.95      
Jun 08 07:53 NNE 5 10 Cloudy BKN048 OVC070 55 51     86%     29.97 29.95      
Jun 07 21:53 NNE 9 10 Clear CLR 60 51     72%     29.99 29.96      
Jun 05 15:20 NNE 3 10 Mostly Cloudy FEW017 SCT029 BKN095 71 64     79%   72 29.82   0    
Jun 05 15:12 NNE 3 10 Mostly Cloudy SCT017 BKN029 BKN055 71 64     79%   72 29.82   0